Weather History for Cleburne, TX

Change the Weather History Date:

Friday, July 5, 2013

  Actual Average (KDFW) Record (KDFW)
Temperature  
Mean Temperature 84 °F 84 °F  
Max Temperature 98 °F 95 °F 103 °F (1996)
Min Temperature 69 °F 74 °F 56 °F (1924)
Degree Days  
Heating Degree Days 0 0  
Month to date heating degree days 0  
Since 1 June heating degree days 0  
Since 1 July heating degree days 0  
Cooling Degree Days 18 19  
Month to date cooling degree days 95  
Year to date cooling degree days 1008  
Since 1 June cooling degree days 586  
Growing Degree Days 34 (Base 50)    
Moisture  
Dew Point 58 °F    
Average Humidity 46    
Maximum Humidity 78    
Minimum Humidity 22    
Precipitation  
Precipitation 0.00 in 0.09 in 2.80 in (1958)
Month to date precipitation 0.46  
Year to date precipitation 20.50  
Sea Level Pressure  
Sea Level Pressure 29.96 in    
Wind  
Wind Speed 8 mph (SE)    
Max Wind Speed 15 mph    
Max Gust Speed 18 mph    
Visibility 10 miles    
Events      
T = Trace of Precipitation, MM = Missing Value Source: NWS Daily Summary

Daily Weather History Graph

Daily Weather History Graph

Search for Another Location

Airport:

Trip Planner

Search our weather history database for the weather conditions in past years. The results will help you decide how hot, cold, wet, or windy it might be!

Date:

Astronomy

Jul. 05, 2013 Rise Set
Actual Time 6:28 AM CDT 8:40 PM CDT
Civil Twilight 6:00 AM CDT 9:08 PM CDT
Nautical Twilight 5:25 AM CDT 9:42 PM CDT
Astronomical Twilight 4:48 AM CDT 10:20 PM CDT
Moon 4:25 AM CDT (7/5) 6:39 PM CDT (7/5)
Length of Visible Light 15h 08m
Length of Day
14h 11m
Waning Crescent, 6% of the Moon is Illuminated
Jul 5
Waning Crescent
Jul 8
New
Jul 15
First Quarter
Jul 22
Full
Jul 29
Last Quarter

Hourly Weather History & Observations

Time (CDT) Temp. Heat Index Dew Point Humidity Pressure Visibility Wind Dir Wind Speed Gust Speed Precip Events Conditions
12:15 AM 75.2 °F - 60.8 °F 61% 30.00 in 10.0 mi SE 6.9 mph - N/A   Clear
12:35 AM 73.4 °F - 60.8 °F 65% 30.00 in 10.0 mi SSE 5.8 mph - N/A   Clear
12:55 AM 73.4 °F - 60.8 °F 65% 30.00 in 10.0 mi ESE 6.9 mph - N/A   Clear
1:15 AM 73.4 °F - 60.8 °F 65% 30.00 in 10.0 mi SE 8.1 mph - N/A   Clear
1:35 AM 73.4 °F - 60.8 °F 65% 30.00 in 10.0 mi ESE 8.1 mph - N/A   Clear
1:55 AM 73.4 °F - 60.8 °F 65% 30.00 in 10.0 mi ESE 8.1 mph - N/A   Clear
2:15 AM 73.4 °F - 60.8 °F 65% 29.99 in 10.0 mi ESE 9.2 mph - N/A   Clear
2:35 AM 71.6 °F - 60.8 °F 69% 29.99 in 10.0 mi ESE 8.1 mph - N/A   Clear
2:55 AM 71.6 °F - 60.8 °F 69% 29.99 in 10.0 mi SE 6.9 mph - N/A   Clear
3:15 AM 71.6 °F - 60.8 °F 69% 29.99 in 10.0 mi SE 8.1 mph - N/A   Clear
3:35 AM 71.6 °F - 60.8 °F 69% 29.99 in 10.0 mi SE 8.1 mph - N/A   Clear
3:55 AM 71.6 °F - 60.8 °F 69% 29.99 in 10.0 mi SE 6.9 mph - N/A   Clear
4:15 AM 71.6 °F - 60.8 °F 69% 29.99 in 10.0 mi SE 6.9 mph - N/A   Clear
4:35 AM 69.8 °F - 60.8 °F 73% 29.99 in 10.0 mi SSE 5.8 mph - N/A   Clear
4:55 AM 69.8 °F - 60.8 °F 73% 29.98 in 10.0 mi SSE 5.8 mph - N/A   Clear
5:15 AM 69.8 °F - 60.8 °F 73% 29.98 in 10.0 mi SSE 6.9 mph - N/A   Clear
5:35 AM 69.8 °F - 60.8 °F 73% 29.99 in 10.0 mi SSE 5.8 mph - N/A   Clear
5:55 AM 69.8 °F - 60.8 °F 73% 29.99 in 10.0 mi South 6.9 mph - N/A   Clear
6:15 AM 69.8 °F - 60.8 °F 73% 29.99 in 10.0 mi South 6.9 mph - N/A   Clear
6:35 AM 69.8 °F - 62.6 °F 78% 29.99 in 10.0 mi SSE 5.8 mph - N/A   Clear
6:55 AM 69.8 °F - 62.6 °F 78% 29.99 in 10.0 mi SSE 5.8 mph - N/A   Clear
7:15 AM 69.8 °F - 62.6 °F 78% 29.99 in 10.0 mi SSE 5.8 mph - N/A   Clear
7:35 AM 69.8 °F - 62.6 °F 78% 30.00 in 10.0 mi South 4.6 mph - N/A   Clear
7:55 AM 71.6 °F - 64.4 °F 78% 30.01 in 10.0 mi South 4.6 mph - N/A   Clear
8:15 AM 73.4 °F - 64.4 °F 73% 30.01 in 10.0 mi Calm Calm - N/A   Clear
8:35 AM 75.2 °F - 64.4 °F 69% 30.02 in 10.0 mi South 4.6 mph - N/A   Clear
8:55 AM 77.0 °F - 64.4 °F 65% 30.02 in 10.0 mi SSE 6.9 mph - N/A   Clear
9:15 AM 78.8 °F - 64.4 °F 61% 30.03 in 10.0 mi South 5.8 mph - N/A   Clear
9:35 AM 80.6 °F 81.8 °F 62.6 °F 54% 30.03 in 10.0 mi South 8.1 mph - N/A   Clear
9:55 AM 82.4 °F 82.5 °F 59.0 °F 45% 30.02 in 10.0 mi South 9.2 mph - N/A   Clear
10:15 AM 84.2 °F 83.8 °F 59.0 °F 42% 30.02 in 10.0 mi South 10.4 mph - N/A   Clear
10:35 AM 86.0 °F 84.9 °F 57.2 °F 37% 30.02 in 10.0 mi South 12.7 mph 16.1 mph N/A   Clear
10:55 AM 87.8 °F 86.5 °F 57.2 °F 35% 30.02 in 10.0 mi South 11.5 mph - N/A   Clear
11:15 AM 87.8 °F 86.5 °F 57.2 °F 35% 30.02 in 10.0 mi SSE 4.6 mph - N/A   Clear
11:35 AM 89.6 °F 88.1 °F 57.2 °F 33% 30.01 in 10.0 mi South 10.4 mph - N/A   Clear
11:55 AM 91.4 °F 89.9 °F 57.2 °F 31% 30.01 in 10.0 mi SSE 9.2 mph - N/A   Clear
12:15 PM 93.2 °F 91.9 °F 57.2 °F 30% 30.00 in 10.0 mi SSE 10.4 mph - N/A   Clear
12:35 PM 93.2 °F 91.9 °F 57.2 °F 30% 30.00 in 10.0 mi SSW 6.9 mph - N/A   Clear
12:55 PM 91.4 °F 89.4 °F 55.4 °F 29% 29.99 in 10.0 mi South 4.6 mph - N/A   Clear
1:15 PM 93.2 °F 90.8 °F 53.6 °F 26% 29.98 in 10.0 mi SSE 6.9 mph - N/A   Clear
1:35 PM 95.0 °F 92.7 °F 53.6 °F 25% 29.98 in 10.0 mi ESE 5.8 mph - N/A   Clear
1:55 PM 93.2 °F 90.8 °F 53.6 °F 26% 29.97 in 10.0 mi South 10.4 mph - N/A   Partly Cloudy
2:15 PM 95.0 °F - 51.8 °F 23% 29.96 in 10.0 mi SE 6.9 mph 18.4 mph N/A   Partly Cloudy
2:35 PM 95.0 °F 93.0 °F 55.4 °F 26% 29.95 in 10.0 mi South 8.1 mph - N/A   Clear
2:55 PM 95.0 °F 92.7 °F 53.6 °F 25% 29.95 in 10.0 mi ESE 8.1 mph - N/A   Clear
3:15 PM 96.8 °F 94.4 °F 53.6 °F 23% 29.95 in 10.0 mi SSE 8.1 mph - N/A   Clear
3:35 PM 96.8 °F - 51.8 °F 22% 29.94 in 10.0 mi South 6.9 mph - N/A   Clear
3:55 PM 96.8 °F - 51.8 °F 22% 29.93 in 10.0 mi ESE 12.7 mph - N/A   Clear
4:15 PM 96.8 °F 94.4 °F 53.6 °F 23% 29.92 in 10.0 mi SE 11.5 mph 16.1 mph N/A   Clear
4:35 PM 96.8 °F 94.4 °F 53.6 °F 23% 29.91 in 10.0 mi ESE 10.4 mph 17.3 mph N/A   Clear
4:55 PM 96.8 °F 94.4 °F 53.6 °F 23% 29.91 in 10.0 mi SE 6.9 mph - N/A   Clear
5:15 PM 98.6 °F 96.4 °F 53.6 °F 22% 29.90 in 10.0 mi ESE 15.0 mph - N/A   Partly Cloudy
5:35 PM 96.8 °F 94.4 °F 53.6 °F 23% 29.89 in 10.0 mi SE 12.7 mph 17.3 mph N/A   Partly Cloudy
5:55 PM 96.8 °F - 51.8 °F 22% 29.89 in 9.0 mi East 6.9 mph - N/A   Clear
6:15 PM 96.8 °F - 51.8 °F 22% 29.89 in 10.0 mi ESE 9.2 mph - N/A   Partly Cloudy
6:35 PM 95.0 °F 92.7 °F 53.6 °F 25% 29.89 in 10.0 mi ESE 10.4 mph - N/A   Partly Cloudy
6:55 PM 95.0 °F 92.7 °F 53.6 °F 25% 29.88 in 10.0 mi ESE 11.5 mph - N/A   Clear
7:15 PM 93.2 °F 90.8 °F 53.6 °F 26% 29.88 in 10.0 mi ESE 13.8 mph - N/A   Clear
7:35 PM 93.2 °F 91.3 °F 55.4 °F 28% 29.89 in 10.0 mi ESE 15.0 mph - N/A   Clear
7:55 PM 91.4 °F 89.4 °F 55.4 °F 29% 29.89 in 10.0 mi ESE 10.4 mph - N/A   Clear
8:15 PM 91.4 °F 89.4 °F 55.4 °F 29% 29.89 in 10.0 mi ESE 10.4 mph - N/A   Clear
8:35 PM 89.6 °F 87.7 °F 55.4 °F 31% 29.90 in 10.0 mi ESE 12.7 mph - N/A   Clear
8:55 PM 87.8 °F 86.1 °F 55.4 °F 33% 29.90 in 10.0 mi ESE 8.1 mph - N/A   Clear
9:15 PM 87.8 °F 86.5 °F 57.2 °F 35% 29.91 in 10.0 mi ESE 9.2 mph - N/A   Clear
9:35 PM 86.0 °F 84.9 °F 57.2 °F 37% 29.91 in 10.0 mi ESE 9.2 mph - N/A   Clear
9:55 PM 86.0 °F 84.9 °F 57.2 °F 37% 29.92 in 10.0 mi ESE 10.4 mph - N/A   Clear
10:15 PM 84.2 °F 83.5 °F 57.2 °F 40% 29.92 in 10.0 mi ESE 10.4 mph - N/A   Clear
10:35 PM 84.2 °F 83.5 °F 57.2 °F 40% 29.93 in 10.0 mi ESE 11.5 mph - N/A   Clear
10:55 PM 84.2 °F 83.5 °F 57.2 °F 40% 29.94 in 10.0 mi ESE 11.5 mph - N/A   Clear
11:15 PM 82.4 °F 82.0 °F 57.2 °F 42% 29.94 in 10.0 mi ESE 9.2 mph - N/A   Clear
11:35 PM 82.4 °F 82.0 °F 57.2 °F 42% 29.95 in 10.0 mi SE 10.4 mph - N/A   Clear
11:55 PM 82.4 °F 82.0 °F 57.2 °F 42% 29.95 in 10.0 mi SE 10.4 mph - N/A   Clear